Location: Oshawa
(43.9000°N, 78.8670°W)
Time: 07:51:34
(UTC-04:00)

ITAMSAT 1 - Visible Passes

Search period start: 01 August 2014 00:00
Search period end: 11 August 2014 00:00
Orbit: 785 x 798 km, 98.7° (Epoch: 31 July)

Date Brightness Start Highest point End Pass type
(mag) Time Alt. Az. Time Alt. Az. Time Alt. Az.
01 Aug 9.9 02:13:21 10° ENE 02:15:58 14° E 02:17:38 12° ESE visible
01 Aug 7.6 03:50:52 10° N 03:56:03 76° WNW 03:58:23 33° SSW visible
01 Aug 9.7 05:33:05 10° NW 05:34:39 11° NW 05:36:14 10° WNW visible
02 Aug 8.0 03:21:50 10° NNE 03:26:58 60° ESE 03:28:53 37° SSE visible
02 Aug 9.3 05:02:22 10° NNW 05:06:00 20° WNW 05:09:37 10° WSW visible
03 Aug 8.9 02:53:06 10° NNE 02:57:45 33° E 02:59:22 27° SE visible
03 Aug 8.6 04:32:36 10° N 04:37:13 33° WNW 04:40:07 19° WSW visible
04 Aug 9.6 02:24:54 10° NE 02:28:24 18° E 02:29:52 16° ESE visible
04 Aug 7.8 04:03:12 10° N 04:08:18 59° WNW 04:10:37 31° SW visible
05 Aug 7.7 03:34:03 10° NNE 03:39:15 77° ESE 03:41:06 41° S visible
05 Aug 9.5 05:15:07 10° NNW 05:18:07 16° WNW 05:21:07 10° W visible
06 Aug 8.5 03:05:11 10° NNE 03:10:06 42° E 03:11:36 34° SE visible
06 Aug 8.9 04:45:07 10° N 04:49:23 27° WNW 04:52:21 16° WSW visible
07 Aug 9.3 02:36:43 10° NE 02:40:48 23° E 02:42:05 21° ESE visible
07 Aug 8.1 04:15:35 10° N 04:20:31 46° WNW 04:22:50 28° SW visible
08 Aug 10.0 02:09:15 10° ENE 02:11:23 12° E 02:12:34 12° ESE visible
08 Aug 7.6 03:46:20 10° NNE 03:51:32 83° WNW 03:53:19 42° SSW visible
08 Aug 9.7 05:28:07 10° NNW 05:30:12 13° WNW 05:32:18 10° W visible
09 Aug 8.1 03:17:20 10° NNE 03:22:25 54° E 03:23:49 41° SSE visible
09 Aug 9.1 04:57:41 10° NNW 05:01:31 21° WNW 05:04:34 13° WSW visible
10 Aug 9.0 02:48:40 10° NE 02:53:11 30° E 02:54:18 27° ESE visible
10 Aug 8.4 04:28:00 10° N 04:32:43 36° WNW 04:35:03 24° WSW visible
